Flag for U.S.A. Weather past 2 weeks in Louisville, Kentucky, U.S.A.

Now
74 °F

Passing clouds.


Feels Like: 76 °F
Forecast: 69 / 91 °F
Wind: 5 mph from South

Location: Standiford Field

Current Time: Aug 3, 2015 at 7:24:33 AM

Latest Report: Aug 3, 2015 at 6:56 AM


Visibility: 9 mi

Pressure: 29.85 "Hg

Humidity: 64%

Dew point: 61 °F

Location of LouisvilleLocation

Historic Weather in Louisville — Graph

°F

Louisville temperature yesterday

Maximum temperature yesterday: 90 °F (at 4:56 PM)
Minimum temperature yesterday: 67 °F (at 7:56 AM)
Average temperature yesterday: 79 °F

Past Weeks' High & Low Weather Summary

 TemperatureHumidityPressure
High95 °F (Jul 29, 4:56 PM)90% (Jul 21, 4:56 AM)30.09 "Hg (Jul 21, 4:56 AM)
Low67 °F (Aug 2, 7:56 AM)29% (Aug 1, 3:56 PM)29.74 "Hg (Jul 21, 4:56 AM)
Average81 °F62%29.94 "Hg
* Reported Jul 19 4:56 AM — Aug 3 4:56 AM, Louisville, Weather by CustomWeather, © 2015

Note: Actual official high and low records may vary slightly from our data, if they occured in-between our weather recording intervals... More about our weather records

Advertising

Louisville weather history for previous 24 hours

 ConditionsComfort  
Time TempWeatherWind HumidityBarometerVisibility
4:56 AM
Mon, Aug 3
73 °FPassing clouds.5 mph71%29.85 "Hg10 mi
3:56 AM72 °FPassing clouds.6 mph76%29.85 "Hg10 mi
2:56 AM74 °FClear.3 mph67%29.86 "Hg10 mi
1:56 AM75 °FClear.5 mph64%29.86 "Hg10 mi
12:56 AM77 °FClear.7 mph60%29.87 "Hg10 mi
11:56 PM
Sun, Aug 2
79 °FClear.9 mph56%29.87 "Hg10 mi
10:56 PM79 °FClear.7 mph56%29.88 "Hg10 mi
9:56 PM81 °FClear.9 mph53%29.87 "Hg10 mi
8:56 PM84 °FPassing clouds.12 mph46%29.87 "Hg10 mi
7:56 PM86 °FPassing clouds.10 mph39%29.87 "Hg10 mi
6:56 PM87 °FPassing clouds.10 mph39%29.89 "Hg10 mi
5:56 PM89 °FPassing clouds.7 mph34%29.90 "Hg10 mi
4:56 PM90 °FScattered clouds.6 mph35%29.90 "Hg10 mi
3:56 PM89 °FPassing clouds.5 mph35%29.92 "Hg10 mi
2:56 PM88 °FPassing clouds.9 mph36%29.94 "Hg10 mi
1:56 PM87 °FPassing clouds.6 mph39%29.95 "Hg10 mi
12:56 PM85 °FPartly sunny.3 mph40%29.96 "Hg10 mi
11:56 AM84 °FPassing clouds.7 mph43%29.98 "Hg10 mi
10:56 AM81 °FPassing clouds.No wind49%29.98 "Hg10 mi
9:56 AM77 °FPassing clouds.3 mph58%29.99 "Hg9 mi
8:56 AM72 °FPassing clouds.No wind71%29.98 "Hg9 mi
7:56 AM67 °FScattered clouds.No wind81%29.98 "Hg9 mi
Weather by CustomWeather, © 2015

See weather overviewHow to use our weather pages